Index of /20260428/WXO-DD/model_gdps/15km/00/057
Name Last modified Size Description
Parent Directory -
20260428T00Z_MSC_GDPS_AbsoluteVorticity_IsbL-0200_LatLon0.15_PT057H.grib2 2026-04-28 04:12 1.5M
20260428T00Z_MSC_GDPS_AbsoluteVorticity_IsbL-0250_LatLon0.15_PT057H.grib2 2026-04-28 04:12 1.3M
20260428T00Z_MSC_GDPS_AbsoluteVorticity_IsbL-0500_LatLon0.15_PT057H.grib2 2026-04-28 04:12 1.4M
20260428T00Z_MSC_GDPS_AbsoluteVorticity_IsbL-0700_LatLon0.15_PT057H.grib2 2026-04-28 04:12 1.6M
20260428T00Z_MSC_GDPS_AbsoluteVorticity_IsbL-0850_LatLon0.15_PT057H.grib2 2026-04-28 04:12 1.6M
20260428T00Z_MSC_GDPS_AirTemp_AGL-120m_LatLon0.15_PT057H.grib2 2026-04-28 04:12 791K
20260428T00Z_MSC_GDPS_AirTemp_AGL-2m_LatLon0.15_PT057H.grib2 2026-04-28 04:12 1.0M
20260428T00Z_MSC_GDPS_AirTemp_AGL-40m_LatLon0.15_PT057H.grib2 2026-04-28 04:12 811K
20260428T00Z_MSC_GDPS_AirTemp_AGL-80m_LatLon0.15_PT057H.grib2 2026-04-28 04:12 801K
20260428T00Z_MSC_GDPS_AirTemp_IsbL-0001_LatLon0.15_PT057H.grib2 2026-04-28 04:12 643K
20260428T00Z_MSC_GDPS_AirTemp_IsbL-0005_LatLon0.15_PT057H.grib2 2026-04-28 04:12 683K
20260428T00Z_MSC_GDPS_AirTemp_IsbL-0010_LatLon0.15_PT057H.grib2 2026-04-28 04:12 690K
20260428T00Z_MSC_GDPS_AirTemp_IsbL-0020_LatLon0.15_PT057H.grib2 2026-04-28 04:12 783K
20260428T00Z_MSC_GDPS_AirTemp_IsbL-0030_LatLon0.15_PT057H.grib2 2026-04-28 04:12 749K
20260428T00Z_MSC_GDPS_AirTemp_IsbL-0050_LatLon0.15_PT057H.grib2 2026-04-28 04:12 805K
20260428T00Z_MSC_GDPS_AirTemp_IsbL-0100_LatLon0.15_PT057H.grib2 2026-04-28 04:12 1.0M
20260428T00Z_MSC_GDPS_AirTemp_IsbL-0150_LatLon0.15_PT057H.grib2 2026-04-28 04:12 970K
20260428T00Z_MSC_GDPS_AirTemp_IsbL-0175_LatLon0.15_PT057H.grib2 2026-04-28 04:12 952K
20260428T00Z_MSC_GDPS_AirTemp_IsbL-0200_LatLon0.15_PT057H.grib2 2026-04-28 04:12 964K
20260428T00Z_MSC_GDPS_AirTemp_IsbL-0225_LatLon0.15_PT057H.grib2 2026-04-28 04:12 968K
20260428T00Z_MSC_GDPS_AirTemp_IsbL-0250_LatLon0.15_PT057H.grib2 2026-04-28 04:12 1.0M
20260428T00Z_MSC_GDPS_AirTemp_IsbL-0275_LatLon0.15_PT057H.grib2 2026-04-28 04:12 1.0M
20260428T00Z_MSC_GDPS_AirTemp_IsbL-0300_LatLon0.15_PT057H.grib2 2026-04-28 04:12 1.0M
20260428T00Z_MSC_GDPS_AirTemp_IsbL-0350_LatLon0.15_PT057H.grib2 2026-04-28 04:12 925K
20260428T00Z_MSC_GDPS_AirTemp_IsbL-0400_LatLon0.15_PT057H.grib2 2026-04-28 04:12 935K
20260428T00Z_MSC_GDPS_AirTemp_IsbL-0450_LatLon0.15_PT057H.grib2 2026-04-28 04:12 957K
20260428T00Z_MSC_GDPS_AirTemp_IsbL-0500_LatLon0.15_PT057H.grib2 2026-04-28 04:12 760K
20260428T00Z_MSC_GDPS_AirTemp_IsbL-0550_LatLon0.15_PT057H.grib2 2026-04-28 04:12 795K
20260428T00Z_MSC_GDPS_AirTemp_IsbL-0600_LatLon0.15_PT057H.grib2 2026-04-28 04:12 891K
20260428T00Z_MSC_GDPS_AirTemp_IsbL-0650_LatLon0.15_PT057H.grib2 2026-04-28 04:12 916K
20260428T00Z_MSC_GDPS_AirTemp_IsbL-0700_LatLon0.15_PT057H.grib2 2026-04-28 04:12 952K
20260428T00Z_MSC_GDPS_AirTemp_IsbL-0750_LatLon0.15_PT057H.grib2 2026-04-28 04:12 1.0M
20260428T00Z_MSC_GDPS_AirTemp_IsbL-0800_LatLon0.15_PT057H.grib2 2026-04-28 04:12 1.1M
20260428T00Z_MSC_GDPS_AirTemp_IsbL-0850_LatLon0.15_PT057H.grib2 2026-04-28 04:12 1.1M
20260428T00Z_MSC_GDPS_AirTemp_IsbL-0875_LatLon0.15_PT057H.grib2 2026-04-28 04:12 1.2M
20260428T00Z_MSC_GDPS_AirTemp_IsbL-0900_LatLon0.15_PT057H.grib2 2026-04-28 04:12 1.2M
20260428T00Z_MSC_GDPS_AirTemp_IsbL-0925_LatLon0.15_PT057H.grib2 2026-04-28 04:12 1.1M
20260428T00Z_MSC_GDPS_AirTemp_IsbL-0950_LatLon0.15_PT057H.grib2 2026-04-28 04:12 1.1M
20260428T00Z_MSC_GDPS_AirTemp_IsbL-0970_LatLon0.15_PT057H.grib2 2026-04-28 04:12 1.2M
20260428T00Z_MSC_GDPS_AirTemp_IsbL-0985_LatLon0.15_PT057H.grib2 2026-04-28 04:12 1.1M
20260428T00Z_MSC_GDPS_AirTemp_IsbL-1000_LatLon0.15_PT057H.grib2 2026-04-28 04:12 1.1M
20260428T00Z_MSC_GDPS_AirTemp_IsbL-1015_LatLon0.15_PT057H.grib2 2026-04-28 04:12 1.1M
20260428T00Z_MSC_GDPS_Albedo_Sfc_LatLon0.15_PT057H.grib2 2026-04-28 04:12 242K
20260428T00Z_MSC_GDPS_CAPE_Sfc_LatLon0.15_PT057H.grib2 2026-04-28 04:12 3.9M
20260428T00Z_MSC_GDPS_CIN_Sfc_LatLon0.15_PT057H.grib2 2026-04-28 04:12 3.0M
20260428T00Z_MSC_GDPS_CloudWater_EAtm_LatLon0.15_PT057H.grib2 2026-04-28 04:12 533K
20260428T00Z_MSC_GDPS_ConvectivePrecip-Accum_Sfc_LatLon0.15_PT057H.grib2 2026-04-28 04:12 3.1M
20260428T00Z_MSC_GDPS_DewPointDepression_AGL-2m_LatLon0.15_PT057H.grib2 2026-04-28 04:12 759K
20260428T00Z_MSC_GDPS_DewPointDepression_IsbL-0010_LatLon0.15_PT057H.grib2 2026-04-28 04:12 55K
20260428T00Z_MSC_GDPS_DewPointDepression_IsbL-0020_LatLon0.15_PT057H.grib2 2026-04-28 04:12 64K
20260428T00Z_MSC_GDPS_DewPointDepression_IsbL-0030_LatLon0.15_PT057H.grib2 2026-04-28 04:12 72K
20260428T00Z_MSC_GDPS_DewPointDepression_IsbL-0050_LatLon0.15_PT057H.grib2 2026-04-28 04:12 365K
20260428T00Z_MSC_GDPS_DewPointDepression_IsbL-0100_LatLon0.15_PT057H.grib2 2026-04-28 04:12 413K
20260428T00Z_MSC_GDPS_DewPointDepression_IsbL-0150_LatLon0.15_PT057H.grib2 2026-04-28 04:12 454K
20260428T00Z_MSC_GDPS_DewPointDepression_IsbL-0175_LatLon0.15_PT057H.grib2 2026-04-28 04:12 556K
20260428T00Z_MSC_GDPS_DewPointDepression_IsbL-0200_LatLon0.15_PT057H.grib2 2026-04-28 04:12 670K
20260428T00Z_MSC_GDPS_DewPointDepression_IsbL-0225_LatLon0.15_PT057H.grib2 2026-04-28 04:12 782K
20260428T00Z_MSC_GDPS_DewPointDepression_IsbL-0250_LatLon0.15_PT057H.grib2 2026-04-28 04:12 867K
20260428T00Z_MSC_GDPS_DewPointDepression_IsbL-0275_LatLon0.15_PT057H.grib2 2026-04-28 04:12 879K
20260428T00Z_MSC_GDPS_DewPointDepression_IsbL-0300_LatLon0.15_PT057H.grib2 2026-04-28 04:12 919K
20260428T00Z_MSC_GDPS_DewPointDepression_IsbL-0350_LatLon0.15_PT057H.grib2 2026-04-28 04:12 940K
20260428T00Z_MSC_GDPS_DewPointDepression_IsbL-0400_LatLon0.15_PT057H.grib2 2026-04-28 04:12 965K
20260428T00Z_MSC_GDPS_DewPointDepression_IsbL-0450_LatLon0.15_PT057H.grib2 2026-04-28 04:12 1.0M
20260428T00Z_MSC_GDPS_DewPointDepression_IsbL-0500_LatLon0.15_PT057H.grib2 2026-04-28 04:12 1.0M
20260428T00Z_MSC_GDPS_DewPointDepression_IsbL-0550_LatLon0.15_PT057H.grib2 2026-04-28 04:12 1.0M
20260428T00Z_MSC_GDPS_DewPointDepression_IsbL-0600_LatLon0.15_PT057H.grib2 2026-04-28 04:12 1.0M
20260428T00Z_MSC_GDPS_DewPointDepression_IsbL-0650_LatLon0.15_PT057H.grib2 2026-04-28 04:12 1.1M
20260428T00Z_MSC_GDPS_DewPointDepression_IsbL-0700_LatLon0.15_PT057H.grib2 2026-04-28 04:12 1.1M
20260428T00Z_MSC_GDPS_DewPointDepression_IsbL-0750_LatLon0.15_PT057H.grib2 2026-04-28 04:12 1.1M
20260428T00Z_MSC_GDPS_DewPointDepression_IsbL-0800_LatLon0.15_PT057H.grib2 2026-04-28 04:12 1.2M
20260428T00Z_MSC_GDPS_DewPointDepression_IsbL-0850_LatLon0.15_PT057H.grib2 2026-04-28 04:12 1.2M
20260428T00Z_MSC_GDPS_DewPointDepression_IsbL-0875_LatLon0.15_PT057H.grib2 2026-04-28 04:12 1.1M
20260428T00Z_MSC_GDPS_DewPointDepression_IsbL-0900_LatLon0.15_PT057H.grib2 2026-04-28 04:12 1.1M
20260428T00Z_MSC_GDPS_DewPointDepression_IsbL-0925_LatLon0.15_PT057H.grib2 2026-04-28 04:12 1.0M
20260428T00Z_MSC_GDPS_DewPointDepression_IsbL-0950_LatLon0.15_PT057H.grib2 2026-04-28 04:12 1.0M
20260428T00Z_MSC_GDPS_DewPointDepression_IsbL-0970_LatLon0.15_PT057H.grib2 2026-04-28 04:12 1.0M
20260428T00Z_MSC_GDPS_DewPointDepression_IsbL-0985_LatLon0.15_PT057H.grib2 2026-04-28 04:12 1.0M
20260428T00Z_MSC_GDPS_DewPointDepression_IsbL-1000_LatLon0.15_PT057H.grib2 2026-04-28 04:12 1.0M
20260428T00Z_MSC_GDPS_DewPointDepression_IsbL-1015_LatLon0.15_PT057H.grib2 2026-04-28 04:12 914K
20260428T00Z_MSC_GDPS_DewPoint_AGL-2m_LatLon0.15_PT057H.grib2 2026-04-28 04:12 611K
20260428T00Z_MSC_GDPS_DownwardLongwaveRadiationFlux-Accum_Sfc_LatLon0.15_PT057H.grib2 2026-04-28 04:12 853K
20260428T00Z_MSC_GDPS_DownwardShortwaveRadiationFlux-Accum_NTAtm_LatLon0.15_PT057H.grib2 2026-04-28 04:12 209K
20260428T00Z_MSC_GDPS_DownwardShortwaveRadiationFlux-Accum_Sfc_LatLon0.15_PT057H.grib2 2026-04-28 04:12 1.1M
20260428T00Z_MSC_GDPS_FreezingRain-Accum1h_Sfc_LatLon0.15_PT057H.grib2 2026-04-28 04:12 48K
20260428T00Z_MSC_GDPS_FreezingRain-Accum3h_Sfc_LatLon0.15_PT057H.grib2 2026-04-28 04:12 47K
20260428T00Z_MSC_GDPS_FreezingRain-Accum_Sfc_LatLon0.15_PT057H.grib2 2026-04-28 04:12 300K
20260428T00Z_MSC_GDPS_GeopotentialHeight_IsbL-0001_LatLon0.15_PT057H.grib2 2026-04-28 04:12 387K
20260428T00Z_MSC_GDPS_GeopotentialHeight_IsbL-0005_LatLon0.15_PT057H.grib2 2026-04-28 04:12 489K
20260428T00Z_MSC_GDPS_GeopotentialHeight_IsbL-0010_LatLon0.15_PT057H.grib2 2026-04-28 04:12 480K
20260428T00Z_MSC_GDPS_GeopotentialHeight_IsbL-0020_LatLon0.15_PT057H.grib2 2026-04-28 04:12 419K
20260428T00Z_MSC_GDPS_GeopotentialHeight_IsbL-0030_LatLon0.15_PT057H.grib2 2026-04-28 04:12 578K
20260428T00Z_MSC_GDPS_GeopotentialHeight_IsbL-0050_LatLon0.15_PT057H.grib2 2026-04-28 04:12 579K
20260428T00Z_MSC_GDPS_GeopotentialHeight_IsbL-0100_LatLon0.15_PT057H.grib2 2026-04-28 04:12 615K
20260428T00Z_MSC_GDPS_GeopotentialHeight_IsbL-0150_LatLon0.15_PT057H.grib2 2026-04-28 04:12 633K
20260428T00Z_MSC_GDPS_GeopotentialHeight_IsbL-0175_LatLon0.15_PT057H.grib2 2026-04-28 04:12 478K
20260428T00Z_MSC_GDPS_GeopotentialHeight_IsbL-0200_LatLon0.15_PT057H.grib2 2026-04-28 04:12 480K
20260428T00Z_MSC_GDPS_GeopotentialHeight_IsbL-0225_LatLon0.15_PT057H.grib2 2026-04-28 04:12 642K
20260428T00Z_MSC_GDPS_GeopotentialHeight_IsbL-0250_LatLon0.15_PT057H.grib2 2026-04-28 04:12 644K
20260428T00Z_MSC_GDPS_GeopotentialHeight_IsbL-0275_LatLon0.15_PT057H.grib2 2026-04-28 04:12 643K
20260428T00Z_MSC_GDPS_GeopotentialHeight_IsbL-0300_LatLon0.15_PT057H.grib2 2026-04-28 04:12 642K
20260428T00Z_MSC_GDPS_GeopotentialHeight_IsbL-0350_LatLon0.15_PT057H.grib2 2026-04-28 04:12 634K
20260428T00Z_MSC_GDPS_GeopotentialHeight_IsbL-0400_LatLon0.15_PT057H.grib2 2026-04-28 04:12 625K
20260428T00Z_MSC_GDPS_GeopotentialHeight_IsbL-0450_LatLon0.15_PT057H.grib2 2026-04-28 04:12 615K
20260428T00Z_MSC_GDPS_GeopotentialHeight_IsbL-0500_LatLon0.15_PT057H.grib2 2026-04-28 04:12 536K
20260428T00Z_MSC_GDPS_GeopotentialHeight_IsbL-0550_LatLon0.15_PT057H.grib2 2026-04-28 04:12 528K
20260428T00Z_MSC_GDPS_GeopotentialHeight_IsbL-0600_LatLon0.15_PT057H.grib2 2026-04-28 04:12 522K
20260428T00Z_MSC_GDPS_GeopotentialHeight_IsbL-0650_LatLon0.15_PT057H.grib2 2026-04-28 04:12 688K
20260428T00Z_MSC_GDPS_GeopotentialHeight_IsbL-0700_LatLon0.15_PT057H.grib2 2026-04-28 04:12 689K
20260428T00Z_MSC_GDPS_GeopotentialHeight_IsbL-0750_LatLon0.15_PT057H.grib2 2026-04-28 04:12 689K
20260428T00Z_MSC_GDPS_GeopotentialHeight_IsbL-0800_LatLon0.15_PT057H.grib2 2026-04-28 04:12 704K
20260428T00Z_MSC_GDPS_GeopotentialHeight_IsbL-0850_LatLon0.15_PT057H.grib2 2026-04-28 04:12 709K
20260428T00Z_MSC_GDPS_GeopotentialHeight_IsbL-0875_LatLon0.15_PT057H.grib2 2026-04-28 04:12 715K
20260428T00Z_MSC_GDPS_GeopotentialHeight_IsbL-0900_LatLon0.15_PT057H.grib2 2026-04-28 04:12 722K
20260428T00Z_MSC_GDPS_GeopotentialHeight_IsbL-0925_LatLon0.15_PT057H.grib2 2026-04-28 04:12 731K
20260428T00Z_MSC_GDPS_GeopotentialHeight_IsbL-0950_LatLon0.15_PT057H.grib2 2026-04-28 04:12 734K
20260428T00Z_MSC_GDPS_GeopotentialHeight_IsbL-0970_LatLon0.15_PT057H.grib2 2026-04-28 04:12 749K
20260428T00Z_MSC_GDPS_GeopotentialHeight_IsbL-0985_LatLon0.15_PT057H.grib2 2026-04-28 04:12 765K
20260428T00Z_MSC_GDPS_GeopotentialHeight_IsbL-1000_LatLon0.15_PT057H.grib2 2026-04-28 04:12 787K
20260428T00Z_MSC_GDPS_GeopotentialHeight_IsbL-1015_LatLon0.15_PT057H.grib2 2026-04-28 04:12 811K
20260428T00Z_MSC_GDPS_Humidex_Sfc_LatLon0.15_PT057H.grib2 2026-04-28 04:12 5.3M
20260428T00Z_MSC_GDPS_IcePellets-Accum1h_Sfc_LatLon0.15_PT057H.grib2 2026-04-28 04:12 8.5K
20260428T00Z_MSC_GDPS_IcePellets-Accum3h_Sfc_LatLon0.15_PT057H.grib2 2026-04-28 04:12 9.5K
20260428T00Z_MSC_GDPS_IcePellets-Accum_Sfc_LatLon0.15_PT057H.grib2 2026-04-28 04:12 69K
20260428T00Z_MSC_GDPS_KIndex_Sfc_LatLon0.15_PT057H.grib2 2026-04-28 04:12 6.5M
20260428T00Z_MSC_GDPS_LatentHeatNetFlux_Sfc_LatLon0.15_PT057H.grib2 2026-04-28 04:12 551K
20260428T00Z_MSC_GDPS_LiftedIndex-MU-VT_IsbL-0500_LatLon0.15_PT057H.grib2 2026-04-28 04:12 5.4M
20260428T00Z_MSC_GDPS_NetLongwaveRadiationFlux-Accum_Sfc_LatLon0.15_PT057H.grib2 2026-04-28 04:12 1.2M
20260428T00Z_MSC_GDPS_NetShortwaveRadiationFlux-Accum_Sfc_LatLon0.15_PT057H.grib2 2026-04-28 04:12 1.0M
20260428T00Z_MSC_GDPS_O3MixingRatio_LatLon0.15_PT057H.grib2 2026-04-28 04:53 2.3M
20260428T00Z_MSC_GDPS_O3_EAtm_LatLon0.15_PT057H.grib2 2026-04-28 04:53 2.5M
20260428T00Z_MSC_GDPS_PlanetaryBoundaryLayerHeight_Sfc_LatLon0.15_PT057H.grib2 2026-04-28 04:12 2.5M
20260428T00Z_MSC_GDPS_Precip-Accum1h_Sfc_LatLon0.15_PT057H.grib2 2026-04-28 04:12 3.3M
20260428T00Z_MSC_GDPS_Precip-Accum3h_Sfc_LatLon0.15_PT057H.grib2 2026-04-28 04:12 3.5M
20260428T00Z_MSC_GDPS_Precip-Accum_Sfc_LatLon0.15_PT057H.grib2 2026-04-28 04:12 5.0M
20260428T00Z_MSC_GDPS_PrecipRate_Sfc_LatLon0.15_PT057H.grib2 2026-04-28 04:12 3.0M
20260428T00Z_MSC_GDPS_PrecipType-Instant_Sfc_LatLon0.15_PT057H.grib2 2026-04-28 04:12 1.6M
20260428T00Z_MSC_GDPS_Pressure_MSL_LatLon0.15_PT057H.grib2 2026-04-28 04:12 720K
20260428T00Z_MSC_GDPS_Pressure_PVU-1.5_LatLon0.15_PT057H.grib2 2026-04-28 04:12 5.8M
20260428T00Z_MSC_GDPS_Pressure_PVU-1_LatLon0.15_PT057H.grib2 2026-04-28 04:12 6.0M
20260428T00Z_MSC_GDPS_Pressure_PVU-2_LatLon0.15_PT057H.grib2 2026-04-28 04:12 5.6M
20260428T00Z_MSC_GDPS_Pressure_Sfc_LatLon0.15_PT057H.grib2 2026-04-28 04:12 1.1M
20260428T00Z_MSC_GDPS_RadiativeTemp_Sfc_LatLon0.15_PT057H.grib2 2026-04-28 04:12 499K
20260428T00Z_MSC_GDPS_Rain-Accum1h_Sfc_LatLon0.15_PT057H.grib2 2026-04-28 04:12 1.7M
20260428T00Z_MSC_GDPS_Rain-Accum3h_Sfc_LatLon0.15_PT057H.grib2 2026-04-28 04:12 1.9M
20260428T00Z_MSC_GDPS_Rain-Accum_Sfc_LatLon0.15_PT057H.grib2 2026-04-28 04:12 3.8M
20260428T00Z_MSC_GDPS_RelativeHumidity_AGL-2m_LatLon0.15_PT057H.grib2 2026-04-28 04:12 1.1M
20260428T00Z_MSC_GDPS_RelativeHumidity_IsbL-0010_LatLon0.15_PT057H.grib2 2026-04-28 04:12 191K
20260428T00Z_MSC_GDPS_RelativeHumidity_IsbL-0020_LatLon0.15_PT057H.grib2 2026-04-28 04:12 165K
20260428T00Z_MSC_GDPS_RelativeHumidity_IsbL-0030_LatLon0.15_PT057H.grib2 2026-04-28 04:12 266K
20260428T00Z_MSC_GDPS_RelativeHumidity_IsbL-0050_LatLon0.15_PT057H.grib2 2026-04-28 04:12 331K
20260428T00Z_MSC_GDPS_RelativeHumidity_IsbL-0100_LatLon0.15_PT057H.grib2 2026-04-28 04:12 507K
20260428T00Z_MSC_GDPS_RelativeHumidity_IsbL-0150_LatLon0.15_PT057H.grib2 2026-04-28 04:12 662K
20260428T00Z_MSC_GDPS_RelativeHumidity_IsbL-0175_LatLon0.15_PT057H.grib2 2026-04-28 04:12 579K
20260428T00Z_MSC_GDPS_RelativeHumidity_IsbL-0200_LatLon0.15_PT057H.grib2 2026-04-28 04:12 686K
20260428T00Z_MSC_GDPS_RelativeHumidity_IsbL-0225_LatLon0.15_PT057H.grib2 2026-04-28 04:12 777K
20260428T00Z_MSC_GDPS_RelativeHumidity_IsbL-0250_LatLon0.15_PT057H.grib2 2026-04-28 04:12 858K
20260428T00Z_MSC_GDPS_RelativeHumidity_IsbL-0275_LatLon0.15_PT057H.grib2 2026-04-28 04:12 879K
20260428T00Z_MSC_GDPS_RelativeHumidity_IsbL-0300_LatLon0.15_PT057H.grib2 2026-04-28 04:12 919K
20260428T00Z_MSC_GDPS_RelativeHumidity_IsbL-0350_LatLon0.15_PT057H.grib2 2026-04-28 04:12 938K
20260428T00Z_MSC_GDPS_RelativeHumidity_IsbL-0400_LatLon0.15_PT057H.grib2 2026-04-28 04:12 957K
20260428T00Z_MSC_GDPS_RelativeHumidity_IsbL-0450_LatLon0.15_PT057H.grib2 2026-04-28 04:12 1.0M
20260428T00Z_MSC_GDPS_RelativeHumidity_IsbL-0500_LatLon0.15_PT057H.grib2 2026-04-28 04:12 1.0M
20260428T00Z_MSC_GDPS_RelativeHumidity_IsbL-0550_LatLon0.15_PT057H.grib2 2026-04-28 04:12 1.0M
20260428T00Z_MSC_GDPS_RelativeHumidity_IsbL-0600_LatLon0.15_PT057H.grib2 2026-04-28 04:12 1.1M
20260428T00Z_MSC_GDPS_RelativeHumidity_IsbL-0650_LatLon0.15_PT057H.grib2 2026-04-28 04:12 1.1M
20260428T00Z_MSC_GDPS_RelativeHumidity_IsbL-0700_LatLon0.15_PT057H.grib2 2026-04-28 04:12 1.1M
20260428T00Z_MSC_GDPS_RelativeHumidity_IsbL-0750_LatLon0.15_PT057H.grib2 2026-04-28 04:12 1.2M
20260428T00Z_MSC_GDPS_RelativeHumidity_IsbL-0800_LatLon0.15_PT057H.grib2 2026-04-28 04:12 1.2M
20260428T00Z_MSC_GDPS_RelativeHumidity_IsbL-0850_LatLon0.15_PT057H.grib2 2026-04-28 04:12 1.3M
20260428T00Z_MSC_GDPS_RelativeHumidity_IsbL-0875_LatLon0.15_PT057H.grib2 2026-04-28 04:12 1.3M
20260428T00Z_MSC_GDPS_RelativeHumidity_IsbL-0900_LatLon0.15_PT057H.grib2 2026-04-28 04:12 1.2M
20260428T00Z_MSC_GDPS_RelativeHumidity_IsbL-0925_LatLon0.15_PT057H.grib2 2026-04-28 04:12 1.2M
20260428T00Z_MSC_GDPS_RelativeHumidity_IsbL-0950_LatLon0.15_PT057H.grib2 2026-04-28 04:12 1.2M
20260428T00Z_MSC_GDPS_RelativeHumidity_IsbL-0970_LatLon0.15_PT057H.grib2 2026-04-28 04:12 1.2M
20260428T00Z_MSC_GDPS_RelativeHumidity_IsbL-0985_LatLon0.15_PT057H.grib2 2026-04-28 04:12 1.1M
20260428T00Z_MSC_GDPS_RelativeHumidity_IsbL-1000_LatLon0.15_PT057H.grib2 2026-04-28 04:12 1.1M
20260428T00Z_MSC_GDPS_RelativeHumidity_IsbL-1015_LatLon0.15_PT057H.grib2 2026-04-28 04:12 1.0M
20260428T00Z_MSC_GDPS_RelativeVorticity_IsbL-0200_LatLon0.15_PT057H.grib2 2026-04-28 04:12 1.5M
20260428T00Z_MSC_GDPS_RelativeVorticity_IsbL-0250_LatLon0.15_PT057H.grib2 2026-04-28 04:12 1.3M
20260428T00Z_MSC_GDPS_RelativeVorticity_IsbL-0500_LatLon0.15_PT057H.grib2 2026-04-28 04:12 1.4M
20260428T00Z_MSC_GDPS_RelativeVorticity_IsbL-0700_LatLon0.15_PT057H.grib2 2026-04-28 04:12 1.6M
20260428T00Z_MSC_GDPS_RelativeVorticity_IsbL-0850_LatLon0.15_PT057H.grib2 2026-04-28 04:12 1.6M
20260428T00Z_MSC_GDPS_Runoff-Accum_Sfc_LatLon0.15_PT057H.grib2 2026-04-28 04:12 137K
20260428T00Z_MSC_GDPS_SensibleHeatNetFlux_Sfc_LatLon0.15_PT057H.grib2 2026-04-28 04:12 661K
20260428T00Z_MSC_GDPS_ShowalterIndex_IsbL-0500_LatLon0.15_PT057H.grib2 2026-04-28 04:12 6.2M
20260428T00Z_MSC_GDPS_Snow-Accum1h_Sfc_LatLon0.15_PT057H.grib2 2026-04-28 04:12 1.1M
20260428T00Z_MSC_GDPS_Snow-Accum3h_Sfc_LatLon0.15_PT057H.grib2 2026-04-28 04:12 1.1M
20260428T00Z_MSC_GDPS_Snow-Accum_Sfc_LatLon0.15_PT057H.grib2 2026-04-28 04:12 1.9M
20260428T00Z_MSC_GDPS_SnowDensity_Sfc_LatLon0.15_PT057H.grib2 2026-04-28 04:12 267K
20260428T00Z_MSC_GDPS_SnowDepth_Sfc_LatLon0.15_PT057H.grib2 2026-04-28 04:12 1.7M
20260428T00Z_MSC_GDPS_SoilTemp_DBS-0to10cm_LatLon0.15_PT057H.grib2 2026-04-28 04:12 504K
20260428T00Z_MSC_GDPS_SoilTemp_Sfc_LatLon0.15_PT057H.grib2 2026-04-28 04:12 593K
20260428T00Z_MSC_GDPS_SoilVolumetricIceContent_Sfc_LatLon0.15_PT057H.grib2 2026-04-28 04:12 208K
20260428T00Z_MSC_GDPS_SoilVolumetricWaterContent_DBS-0to10cm_LatLon0.15_PT057H.grib2 2026-04-28 04:12 582K
20260428T00Z_MSC_GDPS_SoilVolumetricWaterContent_DBS-0to1cm_LatLon0.15_PT057H.grib2 2026-04-28 04:12 647K
20260428T00Z_MSC_GDPS_SpecificHumidity_AGL-120m_LatLon0.15_PT057H.grib2 2026-04-28 04:12 1.1M
20260428T00Z_MSC_GDPS_SpecificHumidity_AGL-2m_LatLon0.15_PT057H.grib2 2026-04-28 04:12 1.2M
20260428T00Z_MSC_GDPS_SpecificHumidity_AGL-40m_LatLon0.15_PT057H.grib2 2026-04-28 04:12 1.1M
20260428T00Z_MSC_GDPS_SpecificHumidity_AGL-80m_LatLon0.15_PT057H.grib2 2026-04-28 04:12 1.1M
20260428T00Z_MSC_GDPS_SpecificHumidity_IsbL-0001_LatLon0.15_PT057H.grib2 2026-04-28 04:12 1.3M
20260428T00Z_MSC_GDPS_SpecificHumidity_IsbL-0005_LatLon0.15_PT057H.grib2 2026-04-28 04:12 1.2M
20260428T00Z_MSC_GDPS_SpecificHumidity_IsbL-0010_LatLon0.15_PT057H.grib2 2026-04-28 04:12 1.3M
20260428T00Z_MSC_GDPS_SpecificHumidity_IsbL-0020_LatLon0.15_PT057H.grib2 2026-04-28 04:12 1.4M
20260428T00Z_MSC_GDPS_SpecificHumidity_IsbL-0030_LatLon0.15_PT057H.grib2 2026-04-28 04:12 1.3M
20260428T00Z_MSC_GDPS_SpecificHumidity_IsbL-0050_LatLon0.15_PT057H.grib2 2026-04-28 04:12 1.3M
20260428T00Z_MSC_GDPS_SpecificHumidity_IsbL-0100_LatLon0.15_PT057H.grib2 2026-04-28 04:12 1.1M
20260428T00Z_MSC_GDPS_SpecificHumidity_IsbL-0150_LatLon0.15_PT057H.grib2 2026-04-28 04:12 1.2M
20260428T00Z_MSC_GDPS_SpecificHumidity_IsbL-0175_LatLon0.15_PT057H.grib2 2026-04-28 04:12 1.2M
20260428T00Z_MSC_GDPS_SpecificHumidity_IsbL-0200_LatLon0.15_PT057H.grib2 2026-04-28 04:12 1.3M
20260428T00Z_MSC_GDPS_SpecificHumidity_IsbL-0225_LatLon0.15_PT057H.grib2 2026-04-28 04:12 1.3M
20260428T00Z_MSC_GDPS_SpecificHumidity_IsbL-0250_LatLon0.15_PT057H.grib2 2026-04-28 04:12 1.4M
20260428T00Z_MSC_GDPS_SpecificHumidity_IsbL-0275_LatLon0.15_PT057H.grib2 2026-04-28 04:12 1.3M
20260428T00Z_MSC_GDPS_SpecificHumidity_IsbL-0300_LatLon0.15_PT057H.grib2 2026-04-28 04:12 1.2M
20260428T00Z_MSC_GDPS_SpecificHumidity_IsbL-0350_LatLon0.15_PT057H.grib2 2026-04-28 04:12 1.2M
20260428T00Z_MSC_GDPS_SpecificHumidity_IsbL-0400_LatLon0.15_PT057H.grib2 2026-04-28 04:12 1.4M
20260428T00Z_MSC_GDPS_SpecificHumidity_IsbL-0450_LatLon0.15_PT057H.grib2 2026-04-28 04:12 1.6M
20260428T00Z_MSC_GDPS_SpecificHumidity_IsbL-0500_LatLon0.15_PT057H.grib2 2026-04-28 04:12 1.4M
20260428T00Z_MSC_GDPS_SpecificHumidity_IsbL-0550_LatLon0.15_PT057H.grib2 2026-04-28 04:12 1.6M
20260428T00Z_MSC_GDPS_SpecificHumidity_IsbL-0600_LatLon0.15_PT057H.grib2 2026-04-28 04:12 1.7M
20260428T00Z_MSC_GDPS_SpecificHumidity_IsbL-0650_LatLon0.15_PT057H.grib2 2026-04-28 04:12 1.5M
20260428T00Z_MSC_GDPS_SpecificHumidity_IsbL-0700_LatLon0.15_PT057H.grib2 2026-04-28 04:12 1.6M
20260428T00Z_MSC_GDPS_SpecificHumidity_IsbL-0750_LatLon0.15_PT057H.grib2 2026-04-28 04:12 1.7M
20260428T00Z_MSC_GDPS_SpecificHumidity_IsbL-0800_LatLon0.15_PT057H.grib2 2026-04-28 04:12 1.8M
20260428T00Z_MSC_GDPS_SpecificHumidity_IsbL-0850_LatLon0.15_PT057H.grib2 2026-04-28 04:12 1.9M
20260428T00Z_MSC_GDPS_SpecificHumidity_IsbL-0875_LatLon0.15_PT057H.grib2 2026-04-28 04:12 1.9M
20260428T00Z_MSC_GDPS_SpecificHumidity_IsbL-0900_LatLon0.15_PT057H.grib2 2026-04-28 04:12 1.6M
20260428T00Z_MSC_GDPS_SpecificHumidity_IsbL-0925_LatLon0.15_PT057H.grib2 2026-04-28 04:12 1.6M
20260428T00Z_MSC_GDPS_SpecificHumidity_IsbL-0950_LatLon0.15_PT057H.grib2 2026-04-28 04:12 1.6M
20260428T00Z_MSC_GDPS_SpecificHumidity_IsbL-0970_LatLon0.15_PT057H.grib2 2026-04-28 04:12 1.5M
20260428T00Z_MSC_GDPS_SpecificHumidity_IsbL-0985_LatLon0.15_PT057H.grib2 2026-04-28 04:12 1.5M
20260428T00Z_MSC_GDPS_SpecificHumidity_IsbL-1000_LatLon0.15_PT057H.grib2 2026-04-28 04:12 1.5M
20260428T00Z_MSC_GDPS_SpecificHumidity_IsbL-1015_LatLon0.15_PT057H.grib2 2026-04-28 04:12 1.5M
20260428T00Z_MSC_GDPS_SpecificHumidity_Sfc_LatLon0.15_PT057H.grib2 2026-04-28 04:12 675K
20260428T00Z_MSC_GDPS_Thickness_IsbL-0850to0700_LatLon0.15_PT057H.grib2 2026-04-28 04:12 467K
20260428T00Z_MSC_GDPS_Thickness_IsbL-1000to0500_LatLon0.15_PT057H.grib2 2026-04-28 04:12 375K
20260428T00Z_MSC_GDPS_Thickness_IsbL-1000to0850_LatLon0.15_PT057H.grib2 2026-04-28 04:12 492K
20260428T00Z_MSC_GDPS_TotalCloudCover_Sfc_LatLon0.15_PT057H.grib2 2026-04-28 04:12 829K
20260428T00Z_MSC_GDPS_TotalTotalsIndex_Sfc_LatLon0.15_PT057H.grib2 2026-04-28 04:12 6.2M
20260428T00Z_MSC_GDPS_UVIndex-ClearSky_Sfc_LatLon0.15_PT057H.grib2 2026-04-28 04:53 1.1M
20260428T00Z_MSC_GDPS_UVIndex_Sfc_LatLon0.15_PT057H.grib2 2026-04-28 04:53 1.5M
20260428T00Z_MSC_GDPS_UpwardLongwaveRadiationFlux_NTAtm_LatLon0.15_PT057H.grib2 2026-04-28 04:12 835K
20260428T00Z_MSC_GDPS_VerticalVelocity_IsbL-0200_LatLon0.15_PT057H.grib2 2026-04-28 04:12 1.2M
20260428T00Z_MSC_GDPS_VerticalVelocity_IsbL-0250_LatLon0.15_PT057H.grib2 2026-04-28 04:12 1.0M
20260428T00Z_MSC_GDPS_VerticalVelocity_IsbL-0500_LatLon0.15_PT057H.grib2 2026-04-28 04:12 1.0M
20260428T00Z_MSC_GDPS_VerticalVelocity_IsbL-0600_LatLon0.15_PT057H.grib2 2026-04-28 04:12 1.1M
20260428T00Z_MSC_GDPS_VerticalVelocity_IsbL-0700_LatLon0.15_PT057H.grib2 2026-04-28 04:12 1.1M
20260428T00Z_MSC_GDPS_VerticalVelocity_IsbL-0850_LatLon0.15_PT057H.grib2 2026-04-28 04:12 1.6M
20260428T00Z_MSC_GDPS_WindChill_Sfc_LatLon0.15_PT057H.grib2 2026-04-28 04:12 5.3M
20260428T00Z_MSC_GDPS_WindDir_AGL-10m_LatLon0.15_PT057H.grib2 2026-04-28 04:12 1.3M
20260428T00Z_MSC_GDPS_WindDir_AGL-120m_LatLon0.15_PT057H.grib2 2026-04-28 04:12 1.4M
20260428T00Z_MSC_GDPS_WindDir_AGL-40m_LatLon0.15_PT057H.grib2 2026-04-28 04:12 1.4M
20260428T00Z_MSC_GDPS_WindDir_AGL-80m_LatLon0.15_PT057H.grib2 2026-04-28 04:12 1.4M
20260428T00Z_MSC_GDPS_WindDir_IsbL-0001_LatLon0.15_PT057H.grib2 2026-04-28 04:12 671K
20260428T00Z_MSC_GDPS_WindDir_IsbL-0005_LatLon0.15_PT057H.grib2 2026-04-28 04:12 791K
20260428T00Z_MSC_GDPS_WindDir_IsbL-0010_LatLon0.15_PT057H.grib2 2026-04-28 04:12 850K
20260428T00Z_MSC_GDPS_WindDir_IsbL-0020_LatLon0.15_PT057H.grib2 2026-04-28 04:12 941K
20260428T00Z_MSC_GDPS_WindDir_IsbL-0030_LatLon0.15_PT057H.grib2 2026-04-28 04:12 924K
20260428T00Z_MSC_GDPS_WindDir_IsbL-0050_LatLon0.15_PT057H.grib2 2026-04-28 04:12 944K
20260428T00Z_MSC_GDPS_WindDir_IsbL-0100_LatLon0.15_PT057H.grib2 2026-04-28 04:12 1.0M
20260428T00Z_MSC_GDPS_WindDir_IsbL-0150_LatLon0.15_PT057H.grib2 2026-04-28 04:12 1.0M
20260428T00Z_MSC_GDPS_WindDir_IsbL-0175_LatLon0.15_PT057H.grib2 2026-04-28 04:12 1.0M
20260428T00Z_MSC_GDPS_WindDir_IsbL-0200_LatLon0.15_PT057H.grib2 2026-04-28 04:12 1.1M
20260428T00Z_MSC_GDPS_WindDir_IsbL-0225_LatLon0.15_PT057H.grib2 2026-04-28 04:12 1.1M
20260428T00Z_MSC_GDPS_WindDir_IsbL-0250_LatLon0.15_PT057H.grib2 2026-04-28 04:12 1.1M
20260428T00Z_MSC_GDPS_WindDir_IsbL-0275_LatLon0.15_PT057H.grib2 2026-04-28 04:12 1.1M
20260428T00Z_MSC_GDPS_WindDir_IsbL-0300_LatLon0.15_PT057H.grib2 2026-04-28 04:12 1.1M
20260428T00Z_MSC_GDPS_WindDir_IsbL-0350_LatLon0.15_PT057H.grib2 2026-04-28 04:12 1.2M
20260428T00Z_MSC_GDPS_WindDir_IsbL-0400_LatLon0.15_PT057H.grib2 2026-04-28 04:12 1.2M
20260428T00Z_MSC_GDPS_WindDir_IsbL-0450_LatLon0.15_PT057H.grib2 2026-04-28 04:12 1.3M
20260428T00Z_MSC_GDPS_WindDir_IsbL-0500_LatLon0.15_PT057H.grib2 2026-04-28 04:12 1.3M
20260428T00Z_MSC_GDPS_WindDir_IsbL-0550_LatLon0.15_PT057H.grib2 2026-04-28 04:12 1.4M
20260428T00Z_MSC_GDPS_WindDir_IsbL-0600_LatLon0.15_PT057H.grib2 2026-04-28 04:12 1.4M
20260428T00Z_MSC_GDPS_WindDir_IsbL-0650_LatLon0.15_PT057H.grib2 2026-04-28 04:12 1.5M
20260428T00Z_MSC_GDPS_WindDir_IsbL-0700_LatLon0.15_PT057H.grib2 2026-04-28 04:12 1.6M
20260428T00Z_MSC_GDPS_WindDir_IsbL-0750_LatLon0.15_PT057H.grib2 2026-04-28 04:12 1.7M
20260428T00Z_MSC_GDPS_WindDir_IsbL-0800_LatLon0.15_PT057H.grib2 2026-04-28 04:12 1.8M
20260428T00Z_MSC_GDPS_WindDir_IsbL-0850_LatLon0.15_PT057H.grib2 2026-04-28 04:12 1.9M
20260428T00Z_MSC_GDPS_WindDir_IsbL-0875_LatLon0.15_PT057H.grib2 2026-04-28 04:12 2.0M
20260428T00Z_MSC_GDPS_WindDir_IsbL-0900_LatLon0.15_PT057H.grib2 2026-04-28 04:12 2.0M
20260428T00Z_MSC_GDPS_WindDir_IsbL-0925_LatLon0.15_PT057H.grib2 2026-04-28 04:12 2.0M
20260428T00Z_MSC_GDPS_WindDir_IsbL-0950_LatLon0.15_PT057H.grib2 2026-04-28 04:12 2.0M
20260428T00Z_MSC_GDPS_WindDir_IsbL-0970_LatLon0.15_PT057H.grib2 2026-04-28 04:12 2.0M
20260428T00Z_MSC_GDPS_WindDir_IsbL-0985_LatLon0.15_PT057H.grib2 2026-04-28 04:12 2.0M
20260428T00Z_MSC_GDPS_WindDir_IsbL-1000_LatLon0.15_PT057H.grib2 2026-04-28 04:12 2.1M
20260428T00Z_MSC_GDPS_WindDir_IsbL-1015_LatLon0.15_PT057H.grib2 2026-04-28 04:12 2.0M
20260428T00Z_MSC_GDPS_WindGust-Max_AGL-10m_LatLon0.15_PT057H.grib2 2026-04-28 04:12 2.2M
20260428T00Z_MSC_GDPS_WindGust-Min_AGL-10m_LatLon0.15_PT057H.grib2 2026-04-28 04:12 2.2M
20260428T00Z_MSC_GDPS_WindGust_AGL-10m_LatLon0.15_PT057H.grib2 2026-04-28 04:12 2.2M
20260428T00Z_MSC_GDPS_WindSpeed_AGL-10m_LatLon0.15_PT057H.grib2 2026-04-28 04:12 1.1M
20260428T00Z_MSC_GDPS_WindSpeed_AGL-120m_LatLon0.15_PT057H.grib2 2026-04-28 04:12 1.2M
20260428T00Z_MSC_GDPS_WindSpeed_AGL-40m_LatLon0.15_PT057H.grib2 2026-04-28 04:12 1.2M
20260428T00Z_MSC_GDPS_WindSpeed_AGL-80m_LatLon0.15_PT057H.grib2 2026-04-28 04:12 1.2M
20260428T00Z_MSC_GDPS_WindSpeed_IsbL-0001_LatLon0.15_PT057H.grib2 2026-04-28 04:12 641K
20260428T00Z_MSC_GDPS_WindSpeed_IsbL-0005_LatLon0.15_PT057H.grib2 2026-04-28 04:12 611K
20260428T00Z_MSC_GDPS_WindSpeed_IsbL-0010_LatLon0.15_PT057H.grib2 2026-04-28 04:12 629K
20260428T00Z_MSC_GDPS_WindSpeed_IsbL-0020_LatLon0.15_PT057H.grib2 2026-04-28 04:12 664K
20260428T00Z_MSC_GDPS_WindSpeed_IsbL-0030_LatLon0.15_PT057H.grib2 2026-04-28 04:12 860K
20260428T00Z_MSC_GDPS_WindSpeed_IsbL-0050_LatLon0.15_PT057H.grib2 2026-04-28 04:12 906K
20260428T00Z_MSC_GDPS_WindSpeed_IsbL-0100_LatLon0.15_PT057H.grib2 2026-04-28 04:12 1.1M
20260428T00Z_MSC_GDPS_WindSpeed_IsbL-0150_LatLon0.15_PT057H.grib2 2026-04-28 04:12 1.0M
20260428T00Z_MSC_GDPS_WindSpeed_IsbL-0175_LatLon0.15_PT057H.grib2 2026-04-28 04:12 1.0M
20260428T00Z_MSC_GDPS_WindSpeed_IsbL-0200_LatLon0.15_PT057H.grib2 2026-04-28 04:12 1.1M
20260428T00Z_MSC_GDPS_WindSpeed_IsbL-0225_LatLon0.15_PT057H.grib2 2026-04-28 04:12 1.1M
20260428T00Z_MSC_GDPS_WindSpeed_IsbL-0250_LatLon0.15_PT057H.grib2 2026-04-28 04:12 1.1M
20260428T00Z_MSC_GDPS_WindSpeed_IsbL-0275_LatLon0.15_PT057H.grib2 2026-04-28 04:12 1.1M
20260428T00Z_MSC_GDPS_WindSpeed_IsbL-0300_LatLon0.15_PT057H.grib2 2026-04-28 04:12 1.1M
20260428T00Z_MSC_GDPS_WindSpeed_IsbL-0350_LatLon0.15_PT057H.grib2 2026-04-28 04:12 1.1M
20260428T00Z_MSC_GDPS_WindSpeed_IsbL-0400_LatLon0.15_PT057H.grib2 2026-04-28 04:12 1.1M
20260428T00Z_MSC_GDPS_WindSpeed_IsbL-0450_LatLon0.15_PT057H.grib2 2026-04-28 04:12 1.1M
20260428T00Z_MSC_GDPS_WindSpeed_IsbL-0500_LatLon0.15_PT057H.grib2 2026-04-28 04:12 1.1M
20260428T00Z_MSC_GDPS_WindSpeed_IsbL-0550_LatLon0.15_PT057H.grib2 2026-04-28 04:12 1.1M
20260428T00Z_MSC_GDPS_WindSpeed_IsbL-0600_LatLon0.15_PT057H.grib2 2026-04-28 04:12 1.1M
20260428T00Z_MSC_GDPS_WindSpeed_IsbL-0650_LatLon0.15_PT057H.grib2 2026-04-28 04:12 1.4M
20260428T00Z_MSC_GDPS_WindSpeed_IsbL-0700_LatLon0.15_PT057H.grib2 2026-04-28 04:12 1.5M
20260428T00Z_MSC_GDPS_WindSpeed_IsbL-0750_LatLon0.15_PT057H.grib2 2026-04-28 04:12 1.6M
20260428T00Z_MSC_GDPS_WindSpeed_IsbL-0800_LatLon0.15_PT057H.grib2 2026-04-28 04:12 1.7M
20260428T00Z_MSC_GDPS_WindSpeed_IsbL-0850_LatLon0.15_PT057H.grib2 2026-04-28 04:12 1.8M
20260428T00Z_MSC_GDPS_WindSpeed_IsbL-0875_LatLon0.15_PT057H.grib2 2026-04-28 04:12 1.9M
20260428T00Z_MSC_GDPS_WindSpeed_IsbL-0900_LatLon0.15_PT057H.grib2 2026-04-28 04:12 1.9M
20260428T00Z_MSC_GDPS_WindSpeed_IsbL-0925_LatLon0.15_PT057H.grib2 2026-04-28 04:12 1.9M
20260428T00Z_MSC_GDPS_WindSpeed_IsbL-0950_LatLon0.15_PT057H.grib2 2026-04-28 04:12 1.9M
20260428T00Z_MSC_GDPS_WindSpeed_IsbL-0970_LatLon0.15_PT057H.grib2 2026-04-28 04:12 1.9M
20260428T00Z_MSC_GDPS_WindSpeed_IsbL-0985_LatLon0.15_PT057H.grib2 2026-04-28 04:12 1.9M
20260428T00Z_MSC_GDPS_WindSpeed_IsbL-1000_LatLon0.15_PT057H.grib2 2026-04-28 04:12 1.9M
20260428T00Z_MSC_GDPS_WindSpeed_IsbL-1015_LatLon0.15_PT057H.grib2 2026-04-28 04:12 1.8M
20260428T00Z_MSC_GDPS_WindU_AGL-10m_LatLon0.15_PT057H.grib2 2026-04-28 04:12 1.6M
20260428T00Z_MSC_GDPS_WindU_AGL-120m_LatLon0.15_PT057H.grib2 2026-04-28 04:12 967K
20260428T00Z_MSC_GDPS_WindU_AGL-40m_LatLon0.15_PT057H.grib2 2026-04-28 04:12 965K
20260428T00Z_MSC_GDPS_WindU_AGL-80m_LatLon0.15_PT057H.grib2 2026-04-28 04:12 968K
20260428T00Z_MSC_GDPS_WindU_IsbL-0001_LatLon0.15_PT057H.grib2 2026-04-28 04:12 500K
20260428T00Z_MSC_GDPS_WindU_IsbL-0005_LatLon0.15_PT057H.grib2 2026-04-28 04:12 692K
20260428T00Z_MSC_GDPS_WindU_IsbL-0010_LatLon0.15_PT057H.grib2 2026-04-28 04:12 706K
20260428T00Z_MSC_GDPS_WindU_IsbL-0020_LatLon0.15_PT057H.grib2 2026-04-28 04:12 733K
20260428T00Z_MSC_GDPS_WindU_IsbL-0030_LatLon0.15_PT057H.grib2 2026-04-28 04:12 738K
20260428T00Z_MSC_GDPS_WindU_IsbL-0050_LatLon0.15_PT057H.grib2 2026-04-28 04:12 770K
20260428T00Z_MSC_GDPS_WindU_IsbL-0100_LatLon0.15_PT057H.grib2 2026-04-28 04:12 919K
20260428T00Z_MSC_GDPS_WindU_IsbL-0150_LatLon0.15_PT057H.grib2 2026-04-28 04:12 1.0M
20260428T00Z_MSC_GDPS_WindU_IsbL-0175_LatLon0.15_PT057H.grib2 2026-04-28 04:12 1.0M
20260428T00Z_MSC_GDPS_WindU_IsbL-0200_LatLon0.15_PT057H.grib2 2026-04-28 04:12 1.0M
20260428T00Z_MSC_GDPS_WindU_IsbL-0225_LatLon0.15_PT057H.grib2 2026-04-28 04:12 849K
20260428T00Z_MSC_GDPS_WindU_IsbL-0250_LatLon0.15_PT057H.grib2 2026-04-28 04:12 850K
20260428T00Z_MSC_GDPS_WindU_IsbL-0275_LatLon0.15_PT057H.grib2 2026-04-28 04:12 877K
20260428T00Z_MSC_GDPS_WindU_IsbL-0300_LatLon0.15_PT057H.grib2 2026-04-28 04:12 866K
20260428T00Z_MSC_GDPS_WindU_IsbL-0350_LatLon0.15_PT057H.grib2 2026-04-28 04:12 877K
20260428T00Z_MSC_GDPS_WindU_IsbL-0400_LatLon0.15_PT057H.grib2 2026-04-28 04:12 881K
20260428T00Z_MSC_GDPS_WindU_IsbL-0450_LatLon0.15_PT057H.grib2 2026-04-28 04:12 1.1M
20260428T00Z_MSC_GDPS_WindU_IsbL-0500_LatLon0.15_PT057H.grib2 2026-04-28 04:12 1.1M
20260428T00Z_MSC_GDPS_WindU_IsbL-0550_LatLon0.15_PT057H.grib2 2026-04-28 04:12 1.1M
20260428T00Z_MSC_GDPS_WindU_IsbL-0600_LatLon0.15_PT057H.grib2 2026-04-28 04:12 1.1M
20260428T00Z_MSC_GDPS_WindU_IsbL-0650_LatLon0.15_PT057H.grib2 2026-04-28 04:12 1.2M
20260428T00Z_MSC_GDPS_WindU_IsbL-0700_LatLon0.15_PT057H.grib2 2026-04-28 04:12 1.2M
20260428T00Z_MSC_GDPS_WindU_IsbL-0750_LatLon0.15_PT057H.grib2 2026-04-28 04:12 1.3M
20260428T00Z_MSC_GDPS_WindU_IsbL-0800_LatLon0.15_PT057H.grib2 2026-04-28 04:12 1.4M
20260428T00Z_MSC_GDPS_WindU_IsbL-0850_LatLon0.15_PT057H.grib2 2026-04-28 04:12 1.4M
20260428T00Z_MSC_GDPS_WindU_IsbL-0875_LatLon0.15_PT057H.grib2 2026-04-28 04:12 1.4M
20260428T00Z_MSC_GDPS_WindU_IsbL-0900_LatLon0.15_PT057H.grib2 2026-04-28 04:12 1.5M
20260428T00Z_MSC_GDPS_WindU_IsbL-0925_LatLon0.15_PT057H.grib2 2026-04-28 04:12 1.5M
20260428T00Z_MSC_GDPS_WindU_IsbL-0950_LatLon0.15_PT057H.grib2 2026-04-28 04:12 1.4M
20260428T00Z_MSC_GDPS_WindU_IsbL-0970_LatLon0.15_PT057H.grib2 2026-04-28 04:12 1.4M
20260428T00Z_MSC_GDPS_WindU_IsbL-0985_LatLon0.15_PT057H.grib2 2026-04-28 04:12 1.4M
20260428T00Z_MSC_GDPS_WindU_IsbL-1000_LatLon0.15_PT057H.grib2 2026-04-28 04:12 1.7M
20260428T00Z_MSC_GDPS_WindU_IsbL-1015_LatLon0.15_PT057H.grib2 2026-04-28 04:12 1.6M
20260428T00Z_MSC_GDPS_WindV_AGL-10m_LatLon0.15_PT057H.grib2 2026-04-28 04:12 1.3M
20260428T00Z_MSC_GDPS_WindV_AGL-120m_LatLon0.15_PT057H.grib2 2026-04-28 04:12 969K
20260428T00Z_MSC_GDPS_WindV_AGL-40m_LatLon0.15_PT057H.grib2 2026-04-28 04:12 965K
20260428T00Z_MSC_GDPS_WindV_AGL-80m_LatLon0.15_PT057H.grib2 2026-04-28 04:12 970K
20260428T00Z_MSC_GDPS_WindV_IsbL-0001_LatLon0.15_PT057H.grib2 2026-04-28 04:12 556K
20260428T00Z_MSC_GDPS_WindV_IsbL-0005_LatLon0.15_PT057H.grib2 2026-04-28 04:12 763K
20260428T00Z_MSC_GDPS_WindV_IsbL-0010_LatLon0.15_PT057H.grib2 2026-04-28 04:12 797K
20260428T00Z_MSC_GDPS_WindV_IsbL-0020_LatLon0.15_PT057H.grib2 2026-04-28 04:12 849K
20260428T00Z_MSC_GDPS_WindV_IsbL-0030_LatLon0.15_PT057H.grib2 2026-04-28 04:12 850K
20260428T00Z_MSC_GDPS_WindV_IsbL-0050_LatLon0.15_PT057H.grib2 2026-04-28 04:12 902K
20260428T00Z_MSC_GDPS_WindV_IsbL-0100_LatLon0.15_PT057H.grib2 2026-04-28 04:12 1.1M
20260428T00Z_MSC_GDPS_WindV_IsbL-0150_LatLon0.15_PT057H.grib2 2026-04-28 04:12 1.0M
20260428T00Z_MSC_GDPS_WindV_IsbL-0175_LatLon0.15_PT057H.grib2 2026-04-28 04:12 1.0M
20260428T00Z_MSC_GDPS_WindV_IsbL-0200_LatLon0.15_PT057H.grib2 2026-04-28 04:12 842K
20260428T00Z_MSC_GDPS_WindV_IsbL-0225_LatLon0.15_PT057H.grib2 2026-04-28 04:12 908K
20260428T00Z_MSC_GDPS_WindV_IsbL-0250_LatLon0.15_PT057H.grib2 2026-04-28 04:12 906K
20260428T00Z_MSC_GDPS_WindV_IsbL-0275_LatLon0.15_PT057H.grib2 2026-04-28 04:12 931K
20260428T00Z_MSC_GDPS_WindV_IsbL-0300_LatLon0.15_PT057H.grib2 2026-04-28 04:12 919K
20260428T00Z_MSC_GDPS_WindV_IsbL-0350_LatLon0.15_PT057H.grib2 2026-04-28 04:12 869K
20260428T00Z_MSC_GDPS_WindV_IsbL-0400_LatLon0.15_PT057H.grib2 2026-04-28 04:12 870K
20260428T00Z_MSC_GDPS_WindV_IsbL-0450_LatLon0.15_PT057H.grib2 2026-04-28 04:12 1.1M
20260428T00Z_MSC_GDPS_WindV_IsbL-0500_LatLon0.15_PT057H.grib2 2026-04-28 04:12 1.1M
20260428T00Z_MSC_GDPS_WindV_IsbL-0550_LatLon0.15_PT057H.grib2 2026-04-28 04:12 1.1M
20260428T00Z_MSC_GDPS_WindV_IsbL-0600_LatLon0.15_PT057H.grib2 2026-04-28 04:12 1.1M
20260428T00Z_MSC_GDPS_WindV_IsbL-0650_LatLon0.15_PT057H.grib2 2026-04-28 04:12 1.2M
20260428T00Z_MSC_GDPS_WindV_IsbL-0700_LatLon0.15_PT057H.grib2 2026-04-28 04:12 1.2M
20260428T00Z_MSC_GDPS_WindV_IsbL-0750_LatLon0.15_PT057H.grib2 2026-04-28 04:12 1.3M
20260428T00Z_MSC_GDPS_WindV_IsbL-0800_LatLon0.15_PT057H.grib2 2026-04-28 04:12 1.3M
20260428T00Z_MSC_GDPS_WindV_IsbL-0850_LatLon0.15_PT057H.grib2 2026-04-28 04:12 1.4M
20260428T00Z_MSC_GDPS_WindV_IsbL-0875_LatLon0.15_PT057H.grib2 2026-04-28 04:12 1.4M
20260428T00Z_MSC_GDPS_WindV_IsbL-0900_LatLon0.15_PT057H.grib2 2026-04-28 04:12 1.4M
20260428T00Z_MSC_GDPS_WindV_IsbL-0925_LatLon0.15_PT057H.grib2 2026-04-28 04:12 1.4M
20260428T00Z_MSC_GDPS_WindV_IsbL-0950_LatLon0.15_PT057H.grib2 2026-04-28 04:12 1.4M
20260428T00Z_MSC_GDPS_WindV_IsbL-0970_LatLon0.15_PT057H.grib2 2026-04-28 04:12 1.4M
20260428T00Z_MSC_GDPS_WindV_IsbL-0985_LatLon0.15_PT057H.grib2 2026-04-28 04:12 1.4M
20260428T00Z_MSC_GDPS_WindV_IsbL-1000_LatLon0.15_PT057H.grib2 2026-04-28 04:12 1.4M
20260428T00Z_MSC_GDPS_WindV_IsbL-1015_LatLon0.15_PT057H.grib2 2026-04-28 04:12 1.3M